User: anonymous   Login
Location: Caltech
(34.1382°N, 118.1253°W)
Time: 02:16:58
(UTC-07:00)
Language:

SL-16 R/B - Orbit

View from above orbital plane
View from above orbital plane
View from above satellite
View from above satellite

Ground track
Ground track

The orbit data is extracted from the following two-line orbital elements,

1 31793U 07029B   17086.76147229 -.00000298 +00000-0 -13052-3 0  9996
2 31793 070.9761 200.1976 0002978 269.8039 197.6437 14.14378629503205
Epoch (UTC): 27 March 2017 18:16:31
Eccentricity: 0.0002978
inclination: 70.9761°
perigee height: 842 km
apogee height: 846 km
right ascension of ascending node: 200.1976°
argument of perigee: 269.8039°
revolutions per day: 14.14378629
mean anomaly at epoch: 197.6437°
orbit number at epoch: 50320

The dashed part of the orbit path shows where the satellite is in the earth's shadow,  

DLR